Theta_e
313 312 312 312 312 311 311 310 310 309 309 305 301 303 296 294 291 302 307 307 304 297 288 294 292 288 292 296 295 295 294 292 294 292 293 291 293 290 290 289 287 290 288 288 288 289 287 289 288 290 291 292 294 297 297 298 296 296 293 296 300 305 296 292 294 298 302 306 307 307 307 306 303 304 302 301 299 300 297 294 292 292 293 292 291 290 292
313 313 313 312 312 311 311 310 310 310 309 305 305 300 296 296 296 298 306 306 303 294 286 287 288 292 295 294 293 296 294 293 292 292 293 291 291 289 290 291 293 288 290 288 287 291 285 291 289 289 292 290 298 297 297 298 294 294 292 292 299 290 293 290 288 289 293 297 300 301 305 304 302 301 303 302 302 301 298 299 296 294 293 294 289 287 291
313 313 313 312 312 311 310 310 310 310 310 309 304 296 298 297 299 300 300 304 301 292 293 290 288 290 291 291 291 291 293 295 295 293 292 294 292 291 289 291 291 290 291 290 291 292 290 287 292 292 291 292 298 297 297 297 295 297 299 304 301 292 291 289 284 283 284 286 286 288 293 295 299 303 304 303 301 299 297 294 294 289 294 296 292 289 296
313 313 313 312 312 311 310 310 310 311 310 309 304 300 298 290 284 293 294 297 297 296 298 295 292 290 290 289 291 292 290 294 296 295 293 294 293 292 292 291 292 291 290 288 288 289 292 289 288 290 289 292 294 296 296 297 296 300 304 302 298 293 293 292 291 288 286 289 292 297 300 300 297 301 302 302 303 301 300 296 292 291 292 294 294 297 298
313 313 313 312 312 311 311 310 311 311 309 309 305 302 297 294 288 289 286 293 293 291 294 292 293 290 293 287 291 289 291 292 293 296 290 294 293 292 292 291 289 289 289 287 287 289 288 291 289 289 289 292 293 296 296 297 299 303 300 301 297 293 288 290 292 292 292 294 294 296 298 296 299 300 301 303 302 301 299 297 295 296 295 290 297 299 299
313 312 312 312 311 311 311 311 310 310 309 309 305 296 296 286 292 293 294 287 285 287 288 291 290 293 294 290 293 290 290 290 288 293 294 294 295 289 292 291 292 290 289 288 285 287 287 288 286 291 290 290 292 292 295 295 300 299 295 299 295 290 286 291 292 290 291 293 295 297 299 301 302 302 302 301 303 301 298 297 298 300 295 293 297 300 300
313 313 313 313 312 311 312 311 310 310 309 307 302 294 298 294 294 293 297 288 290 290 290 292 291 292 295 292 292 289 289 288 291 290 290 292 291 292 285 289 290 290 291 289 285 286 282 284 290 288 289 289 290 289 292 295 296 294 292 294 296 292 287 292 292 289 290 293 296 300 299 301 302 302 302 302 302 302 301 300 301 302 299 300 302 303 302
313 313 313 313 312 312 312 311 311 310 308 307 301 300 294 293 289 289 296 294 291 291 292 292 292 289 294 289 290 290 289 288 291 292 290 287 289 293 289 289 290 291 290 290 286 288 289 288 286 290 289 289 292 290 291 291 295 294 291 292 295 291 287 294 290 288 289 293 298 298 298 298 299 301 302 302 301 302 303 301 301 304 302 302 306 304 303
313 313 313 313 313 312 312 312 311 310 309 302 300 298 302 300 300 298 292 287 290 292 291 290 290 287 289 288 291 291 291 289 291 289 294 291 289 291 289 291 290 291 290 290 289 293 292 292 291 292 291 286 292 290 291 293 289 291 290 291 292 292 287 291 289 285 286 294 294 295 297 298 299 299 301 302 301 300 301 301 301 301 300 301 305 303 301
313 313 313 313 313 312 312 311 312 310 309 304 302 296 306 303 303 302 295 287 292 288 291 291 289 283 290 292 292 291 291 293 293 289 294 295 295 293 293 292 290 289 289 288 291 294 294 294 295 294 295 295 294 294 294 294 291 290 290 292 290 290 288 286 286 283 284 291 293 293 295 296 295 298 300 302 304 304 304 305 305 303 303 299 301 302 305
313 313 313 313 313 313 313 313 313 313 310 303 301 300 303 299 296 297 296 287 289 290 289 288 288 290 291 293 291 293 292 293 293 287 288 294 294 296 295 292 289 287 288 292 297 297 297 297 297 297 296 295 295 295 295 295 294 293 291 290 291 291 289 287 288 282 284 289 291 294 294 288 290 304 305 305 306 308 309 309 309 314 314 301 302 307 310
313 313 313 313 313 313 313 313 313 311 310 308 307 302 304 306 302 298 292 285 287 291 288 286 288 290 289 291 291 290 291 291 291 295 290 292 294 296 295 293 292 286 295 298 298 298 298 298 297 297 297 296 295 295 294 293 293 296 295 291 290 289 289 287 288 284 284 289 292 295 288 290 301 305 307 310 309 316 313 313 314 315 315 315 314 310 311
313 313 313 313 313 313 313 313 313 311 310 310 307 302 307 307 301 297 294 289 285 288 287 288 291 291 291 291 291 293 294 294 293 295 295 293 293 294 295 294 293 294 299 296 297 295 291 289 290 291 292 293 294 294 293 293 293 294 294 295 291 289 288 288 287 287 288 289 289 286 289 300 305 306 308 310 310 307 313 311 313 314 315 314 313 315 315
313 313 313 313 313 313 313 313 313 313 311 310 307 306 307 306 299 297 294 289 288 290 291 289 290 289 291 292 292 292 294 295 295 296 292 295 293 293 297 298 297 299 299 298 295 293 286 286 283 285 286 289 290 289 291 293 294 293 293 293 294 292 291 289 284 289 284 286 285 289 298 301 302 302 302 304 303 304 307 304 307 313 315 315 314 316 318
313 313 313 313 313 313 313 313 313 313 313 309 308 307 307 306 304 299 299 294 287 290 291 285 288 290 291 292 292 290 290 292 292 290 294 296 294 297 298 300 300 299 299 295 290 290 286 284 279 279 282 282 280 283 291 289 295 295 294 294 294 294 289 291 286 285 290 284 283 288 291 289 296 302 305 309 310 311 313 311 307 315 315 318 316 316 318
312 313 313 313 313 313 313 313 313 313 312 309 309 307 307 308 307 304 300 294 291 284 288 293 294 292 291 290 292 291 290 290 290 290 291 292 294 297 299 300 300 300 299 297 293 289 287 281 280 280 279 282 286 284 283 290 289 295 295 294 293 294 294 292 287 286 287 286 284 284 285 295 300 301 305 309 311 310 311 309 304 313 314 317 318 317 319
313 313 313 313 313 313 314 314 313 312 312 310 307 307 306 310 306 303 299 297 294 288 295 296 295 294 291 290 294 292 293 290 290 287 287 288 292 294 297 300 300 300 298 292 289 286 282 281 284 282 284 287 284 284 289 287 287 289 294 293 291 291 291 291 288 286 287 287 284 282 293 290 299 303 306 309 311 313 310 299 300 313 314 317 319 318 319
312 313 313 313 313 314 314 314 314 313 312 311 309 307 307 310 309 306 301 297 292 292 296 298 295 291 290 293 292 295 296 295 294 295 290 292 293 293 295 296 293 300 302 289 289 281 281 281 279 279 279 289 290 289 281 288 284 287 288 290 289 288 289 289 285 285 287 288 286 289 293 304 305 306 307 310 314 312 301 293 306 313 315 317 319 320 321
312 312 313 314 314 314 314 314 314 314 313 310 310 308 307 310 309 307 302 298 295 289 297 300 300 296 298 300 297 297 297 296 296 291 290 289 292 298 297 297 298 289 294 287 287 284 282 282 287 284 282 285 289 283 289 285 285 291 291 289 289 289 289 290 289 285 284 286 285 287 295 304 306 308 309 313 310 299 299 311 317 315 314 316 318 320 322
312 313 313 314 314 314 314 314 314 314 314 311 309 305 308 311 310 308 302 296 297 294 298 298 299 297 300 297 295 294 296 297 298 293 290 287 295 297 294 288 291 295 289 289 283 288 281 280 282 286 280 283 286 292 287 289 293 288 289 293 290 291 287 285 285 289 289 289 285 286 283 299 308 308 310 312 304 307 313 315 314 314 313 314 316 319 321
312 313 313 313 313 314 314 314 314 313 314 314 309 307 305 310 311 310 308 303 298 293 295 303 303 301 301 300 301 300 298 295 296 294 296 294 298 295 284 285 288 290 287 288 280 281 284 281 282 284 288 287 288 289 284 286 288 296 294 292 291 296 288 288 289 293 286 286 286 288 297 300 310 310 303 309 309 317 318 314 311 313 313 312 314 317 320
313 313 313 313 313 314 314 314 314 313 314 313 310 309 304 309 311 311 310 307 300 296 298 303 306 304 305 306 306 305 303 302 302 302 297 294 298 296 294 295 295 294 295 296 291 289 289 287 288 285 284 286 290 286 289 284 283 293 297 295 286 297 292 294 288 294 291 290 294 299 302 305 310 311 313 313 312 313 312 313 312 311 311 313 313 315 319
313 313 313 313 313 314 314 313 313 313 313 314 312 308 304 308 309 312 310 302 304 304 306 304 305 306 307 308 309 309 309 309 307 306 304 298 295 297 296 295 296 300 299 297 290 289 290 289 285 289 286 288 286 286 288 288 286 293 289 296 294 298 297 299 296 294 299 301 301 302 303 304 307 309 311 311 313 313 312 315 311 312 313 313 313 316 316
313 313 313 313 313 313 313 313 313 313 313 313 312 308 306 308 309 309 307 305 301 297 301 304 300 297 300 301 306 308 310 308 308 307 308 305 294 294 298 299 302 299 300 300 301 295 293 291 290 292 285 289 290 284 282 283 287 292 290 290 293 296 298 296 291 296 291 287 298 298 300 304 306 307 310 311 312 311 312 313 312 310 314 316 316 315 314
312 313 313 313 313 313 313 313 313 313 313 313 312 313 311 308 309 308 303 297 297 295 291 296 300 303 306 308 309 308 311 311 311 309 309 306 302 297 294 299 303 298 297 300 301 297 296 290 289 288 284 290 292 283 290 288 286 294 287 289 291 290 299 292 294 294 292 292 296 298 303 304 305 305 304 305 308 310 311 311 313 312 313 316 317 316 313
312 312 313 313 313 313 313 313 312 312 312 312 312 308 306 306 310 311 308 306 304 300 293 292 297 307 309 306 305 307 310 310 309 308 308 308 307 305 303 302 300 303 301 304 300 296 293 291 291 290 286 288 297 288 287 291 291 294 290 289 293 294 298 288 293 291 294 296 298 301 304 304 304 305 306 306 306 311 309 310 311 313 314 313 316 317 314
312 312 313 313 313 313 313 312 312 312 312 312 311 309 306 305 309 309 305 304 299 294 296 293 298 303 306 303 307 309 309 310 310 310 309 309 307 307 305 302 299 301 299 298 299 297 295 293 291 288 290 290 295 292 292 289 289 289 288 292 296 293 289 292 292 288 288 290 294 301 293 292 297 302 306 306 308 308 310 311 311 311 310 310 311 314 317
312 312 312 313 312 312 312 312 312 312 310 312 311 308 308 308 309 311 312 309 302 294 295 295 296 300 306 303 308 307 308 310 310 309 309 308 308 306 305 303 301 301 300 298 293 294 293 290 289 295 295 294 292 288 293 293 293 289 289 291 294 290 291 290 288 287 288 296 299 299 298 297 300 302 304 307 309 309 308 309 310 310 311 311 311 313 315
312 312 312 312 312 312 312 311 311 311 312 309 306 306 308 310 311 312 313 314 310 303 300 300 302 300 294 299 306 306 308 308 309 310 309 308 307 306 306 305 303 303 302 301 298 296 293 293 297 293 292 299 294 290 291 283 283 284 289 293 294 295 296 295 294 294 295 297 298 301 301 299 300 302 304 305 307 308 307 307 309 311 312 312 311 311 314
312 312 312 312 312 311 311 311 312 312 312 308 308 305 303 307 312 311 312 313 309 306 297 294 291 295 304 304 302 305 306 309 308 308 307 308 308 307 307 306 306 304 304 301 299 292 295 295 297 300 301 304 293 292 288 288 286 288 294 294 295 296 297 297 298 294 293 298 299 302 302 301 302 302 304 305 309 309 307 307 309 309 312 313 311 312 314
312 312 312 311 311 311 311 312 313 313 311 306 305 301 295 293 301 313 313 313 309 303 298 298 293 299 298 304 304 304 305 307 307 307 307 309 308 309 310 309 307 306 299 300 297 296 297 292 293 295 301 300 296 290 287 287 285 288 292 295 296 296 296 296 298 299 299 299 300 301 301 301 302 303 303 305 303 305 306 308 310 313 311 311 310 312 314
312 312 311 311 311 311 312 313 313 312 306 304 301 300 299 301 305 311 313 312 309 304 298 292 292 293 293 298 305 307 307 308 308 309 308 308 305 308 306 308 303 306 301 297 299 295 294 296 293 294 293 298 297 290 289 286 284 287 294 295 296 296 297 296 297 298 299 300 299 297 297 298 301 299 299 304 303 304 307 306 306 306 310 310 311 312 313
312 311 310 311 311 312 312 313 313 312 308 308 308 309 308 310 311 312 313 311 305 300 300 293 289 292 292 297 304 307 309 308 307 307 302 308 303 307 303 305 305 304 307 299 293 289 296 297 296 292 296 300 292 287 285 285 287 293 294 295 295 296 296 298 299 299 298 299 298 294 294 296 298 302 302 302 303 303 303 304 306 305 304 304 305 306 308
311 311 310 311 312 312 312 313 313 311 310 307 304 304 308 309 310 310 312 309 304 303 300 293 290 290 292 302 297 305 309 302 301 305 299 306 307 305 301 303 303 298 300 297 298 297 298 296 292 292 294 290 291 286 284 287 292 292 294 295 298 300 301 301 299 297 298 298 299 299 299 300 300 300 301 301 301 302 305 303 304 303 303 303 304 304 305
311 310 311 312 312 313 313 312 307 307 304 306 308 308 309 311 310 312 312 307 297 296 295 295 294 291 292 294 294 299 310 305 300 304 299 302 309 301 302 297 298 293 295 304 297 296 293 293 296 289 285 287 285 284 286 287 290 293 296 297 299 301 303 301 299 299 298 299 299 299 300 300 299 298 299 300 301 301 302 302 303 302 303 302 304 304 305
311 312 312 313 312 312 310 310 306 306 304 305 306 311 313 313 314 309 310 310 303 296 296 297 296 291 293 288 290 297 310 302 305 305 305 304 302 306 304 299 291 297 303 297 291 296 292 299 294 286 287 285 285 285 288 293 294 295 296 297 299 301 302 304 303 302 299 299 299 299 299 299 298 298 299 299 300 300 301 301 301 302 302 303 303 305 308
311 312 312 310 309 309 305 308 311 310 309 310 311 315 314 313 312 312 308 306 308 307 299 296 291 293 296 294 297 301 305 296 304 300 302 300 297 303 301 297 291 297 298 295 295 292 296 302 291 285 285 285 288 294 295 296 295 296 297 299 300 302 304 305 305 303 301 300 299 298 298 297 298 298 298 299 299 301 301 301 301 301 301 302 304 312 315
311 311 308 307 307 305 306 308 311 313 316 314 314 308 305 307 300 303 303 299 304 306 300 299 293 294 301 298 293 304 304 298 305 298 299 304 298 297 302 298 296 298 287 291 295 302 297 294 287 285 286 294 297 297 297 297 298 299 299 300 300 301 302 304 304 302 299 298 297 297 298 297 297 297 297 298 299 299 300 301 302 303 303 306 311 314 314
310 309 308 309 307 305 307 310 313 315 311 311 311 305 302 303 300 298 298 300 301 297 301 297 295 301 300 298 300 308 303 299 299 301 295 302 297 292 301 291 297 297 287 290 294 303 289 290 290 286 287 293 295 296 300 299 299 299 301 301 301 301 301 302 304 304 301 300 299 299 298 296 296 296 299 299 300 301 301 302 303 305 309 312 312 313 311
311 309 308 308 306 309 311 313 316 312 310 304 304 303 299 301 294 292 305 295 293 301 300 295 302 302 305 301 300 299 311 304 297 294 297 297 306 294 299 298 296 292 284 285 291 303 288 285 286 286 286 293 294 298 300 299 298 299 301 301 302 301 301 301 302 304 306 307 309 303 300 300 300 300 299 300 302 301 303 307 310 311 311 312 313 310 309
311 311 310 308 311 311 309 310 309 308 306 303 302 303 300 290 301 303 298 292 293 297 306 301 305 303 307 307 304 299 307 311 306 304 302 298 306 304 294 290 301 290 285 285 297 299 290 287 286 285 289 295 297 299 300 299 299 300 301 302 302 301 301 301 301 302 303 304 307 308 309 309 308 308 309 308 307 307 307 307 307 308 309 309 308 308 310
312 311 310 309 310 312 309 308 306 305 307 306 295 287 293 300 300 297 299 291 292 299 301 303 299 300 301 307 305 307 306 312 309 307 299 296 304 298 293 294 294 286 283 293 300 295 290 285 285 286 294 297 299 300 300 299 300 299 300 301 302 302 301 300 300 301 302 303 305 307 307 307 306 306 307 306 305 305 304 304 304 304 305 307 308 308 308
310 308 308 308 310 309 310 295 302 302 286 288 286 285 291 287 292 292 293 300 306 300 302 310 306 307 309 312 306 308 306 311 305 304 300 296 302 300 291 288 289 284 290 300 294 290 285 285 286 290 297 298 300 300 300 301 301 301 301 301 302 303 302 301 300 300 301 302 303 304 306 307 307 308 307 306 304 304 304 305 305 304 304 305 305 305 306
311 311 311 311 301 306 305 289 300 297 289 289 286 285 289 288 290 294 292 294 300 300 303 300 300 301 298 305 303 304 310 309 308 303 301 299 296 292 291 284 287 294 297 290 290 285 286 288 292 295 298 300 301 301 301 301 301 301 301 302 302 302 303 303 302 300 300 301 302 303 304 304 305 306 307 308 307 304 303 304 305 306 305 305 304 304 305
311 303 294 291 290 295 291 286 293 290 286 289 292 291 291 288 291 292 292 298 303 299 303 304 303 303 302 304 305 305 304 300 306 297 293 296 292 291 288 286 292 293 288 285 288 289 289 288 295 297 298 299 301 302 303 303 302 301 300 301 301 301 301 301 301 302 301 301 301 301 301 303 303 303 305 306 307 308 306 304 305 305 305 304 303 303 304
306 297 293 289 289 289 288 286 287 285 293 295 293 293 292 293 294 294 299 302 299 299 299 301 303 304 300 302 297 295 299 298 295 295 297 294 288 285 292 295 294 287 288 288 285 284 286 291 294 296 299 300 301 302 303 303 304 304 302 300 301 302 302 301 301 301 303 303 302 301 301 301 302 303 303 304 304 305 306 307 308 306 305 304 304 305 305
296 300 293 289 286 288 296 289 290 294 295 295 295 296 296 296 298 298 300 301 299 301 302 304 305 303 300 298 299 297 298 298 294 295 295 288 288 289 295 290 286 287 284 284 284 285 289 294 296 298 299 300 301 301 303 303 304 303 303 303 302 302 302 302 302 301 302 303 303 303 301 301 301 302 304 303 304 304 306 306 307 308 307 306 307 307 307
293 297 292 286 287 290 289 293 298 297 297 298 297 298 299 299 296 296 300 301 301 302 301 301 299 299 299 301 299 294 295 296 292 292 295 292 293 289 285 289 288 290 289 286 286 292 294 296 298 299 300 301 302 301 301 302 302 302 303 303 303 303 302 302 302 302 303 302 302 302 303 303 302 301 302 303 303 304 305 305 306 306 306 307 307 307 308
302 291 289 288 294 294 294 297 295 292 295 296 298 297 297 296 296 297 300 301 301 301 301 300 299 298 293 297 294 293 290 294 288 286 293 290 287 285 286 284 285 284 290 293 292 294 296 299 302 302 302 303 303 302 302 302 302 302 303 303 303 303 303 303 304 304 304 303 302 303 302 303 303 303 302 302 302 303 304 305 305 304 305 306 306 306 306
292 290 296 289 293 293 296 296 294 291 293 294 295 295 296 295 296 298 301 301 301 301 301 300 300 294 293 295 288 291 289 292 291 288 288 287 290 291 289 284 285 285 289 294 295 297 300 300 300 300 300 300 303 302 302 303 304 305 304 305 305 304 304 304 303 304 304 304 304 303 303 303 302 302 302 302 303 304 303 304 303 303 304 305 305 305 306
297 290 295 301 294 295 295 291 291 291 291 293 294 295 295 296 297 297 302 302 300 297 296 293 293 290 286 286 287 286 290 298 294 290 289 289 293 291 286 285 288 293 295 298 299 301 300 300 300 299 299 299 299 300 302 304 304 303 304 305 305 304 303 302 302 302 302 302 303 305 303 303 302 302 303 303 303 303 303 303 304 302 302 303 304 304 304
290 290 294 299 300 298 297 297 297 295 296 297 296 297 298 297 298 299 303 300 298 294 292 295 291 286 283 284 289 294 296 293 290 292 289 293 296 290 290 291 293 296 298 298 299 299 300 299 300 302 299 299 301 299 300 302 304 304 304 305 304 304 304 303 302 301 301 301 301 301 301 302 303 303 303 302 301 300 300 300 303 302 302 302 302 303 303
Wind_Speed
19 18 18 18 18 16 16 16 17 17 16 9 9 5 4 5 8 14 7 16 15 5 5 6 8 5 6 7 5 7 4 5 6 7 3 4 2 2 1 3 5 1 4 5 6 9 7 5 3 9 8 9 10 15 18 19 16 13 8 12 5 17 1 6 9 9 12 17 14 12 10 11 13 9 7 9 12 13 11 8 6 7 3 7 2 4 7
19 18 17 17 17 16 15 15 15 16 15 7 7 4 3 5 7 7 4 15 11 8 7 6 7 7 12 12 9 7 7 8 10 9 8 3 3 2 3 3 2 5 4 3 5 7 7 10 8 5 7 7 11 15 14 18 11 8 8 10 13 8 3 5 9 7 7 8 5 5 3 6 9 9 11 11 11 8 3 6 4 6 9 8 6 8 4
18 17 17 16 16 15 14 14 14 15 15 10 4 4 4 6 4 5 9 10 8 8 3 4 4 9 11 11 11 12 7 7 9 9 6 4 3 4 2 4 5 4 4 6 5 8 8 3 4 5 7 7 8 8 14 17 11 10 15 14 9 4 7 5 4 5 4 7 6 2 7 6 7 9 15 14 14 11 6 7 3 8 5 6 7 5 10
18 17 17 16 15 15 14 13 13 13 14 12 6 5 4 3 5 6 8 7 6 6 4 5 6 6 10 11 9 12 9 9 9 8 5 12 13 4 3 4 6 4 9 7 7 8 9 7 4 3 4 6 4 7 14 11 14 17 17 12 7 4 6 5 5 2 8 10 11 15 12 10 4 11 12 15 11 12 9 6 6 11 5 8 7 7 11
18 17 17 15 15 14 14 12 12 12 13 11 5 4 2 2 2 6 8 8 2 8 5 9 9 5 7 3 7 10 10 8 6 10 3 10 10 6 6 7 7 4 7 4 5 6 9 10 9 4 6 5 7 9 10 14 14 15 12 14 6 2 6 8 7 12 12 15 17 18 15 16 17 13 13 16 17 13 13 11 10 5 10 8 5 8 14
20 19 17 16 14 13 12 11 10 10 11 11 4 2 2 3 1 2 1 1 6 13 9 11 10 9 7 3 5 7 10 11 9 9 5 11 7 6 2 5 4 6 6 4 3 4 6 8 8 5 5 7 6 8 10 11 11 19 11 11 5 5 5 7 12 19 20 18 16 15 14 13 11 12 11 13 19 16 13 11 6 9 8 9 7 8 10
19 19 19 17 14 12 12 11 10 8 10 7 1 1 1 1 1 1 5 3 4 6 12 15 11 9 5 2 3 8 9 9 7 6 9 8 8 7 5 4 7 7 7 5 2 2 4 6 4 4 7 9 7 5 6 3 14 13 12 9 4 5 5 7 13 18 19 17 13 12 10 8 9 8 7 8 15 17 16 8 5 10 6 9 8 9 15
20 18 18 17 13 11 10 10 8 7 7 6 2 2 0 1 2 2 2 2 6 8 8 7 7 6 5 2 1 3 6 9 9 7 6 7 8 7 7 8 10 9 7 4 5 4 4 8 9 6 8 9 2 4 1 7 6 8 9 8 5 5 6 13 13 12 15 12 10 13 13 11 9 8 6 4 5 14 14 10 8 5 3 5 6 7 11
20 18 17 17 14 11 10 8 8 6 1 2 1 3 1 1 1 1 4 6 3 5 7 6 6 4 2 1 1 3 5 7 2 6 9 9 7 6 10 8 8 7 8 7 6 4 8 9 13 13 10 9 3 1 2 3 11 11 9 6 8 6 5 8 7 9 10 7 13 18 15 14 7 5 7 7 3 2 10 10 5 5 5 4 5 5 6
19 19 17 17 14 11 9 8 6 6 3 2 1 3 0 1 1 2 2 3 3 5 6 7 5 3 1 3 2 2 6 6 8 7 5 3 4 9 10 10 7 5 3 6 4 7 8 10 12 11 11 10 11 8 7 6 8 8 7 8 9 4 6 7 6 9 8 10 15 15 15 9 2 6 8 7 3 2 1 1 6 4 3 6 6 9 8
20 18 17 16 15 12 12 8 6 6 3 3 3 3 1 2 2 1 2 3 2 3 5 5 5 2 7 6 7 7 8 5 5 2 4 4 10 8 10 10 6 4 3 3 7 8 9 10 10 8 10 11 10 8 8 11 11 11 9 6 6 8 6 7 3 3 9 16 17 15 2 1 3 0 10 15 10 14 20 14 11 12 8 3 5 9 5
19 18 17 16 14 12 10 8 6 6 4 4 3 4 3 2 1 2 3 3 3 3 3 5 6 8 10 10 7 10 8 6 6 6 8 7 12 13 9 6 2 4 2 5 7 9 9 8 9 9 11 12 13 13 13 15 14 12 11 10 8 9 8 8 3 3 7 11 13 1 4 8 5 9 11 18 7 15 20 17 19 23 24 19 14 12 5
19 18 17 15 14 13 11 8 7 6 6 4 4 6 3 5 3 1 2 4 5 2 5 6 7 10 12 14 12 8 3 8 8 9 8 8 9 8 5 3 2 3 5 8 8 5 4 4 8 9 12 13 11 12 15 15 16 16 12 12 10 9 8 6 3 3 5 4 4 4 9 2 13 12 13 19 12 15 9 22 22 19 15 13 11 13 13
19 18 17 15 15 13 12 10 7 6 7 5 5 5 3 5 3 3 2 2 5 4 5 10 9 11 9 7 7 9 9 6 5 4 6 7 10 9 4 3 3 5 6 4 3 1 2 1 4 5 8 7 4 5 9 13 14 15 16 15 12 13 8 5 6 2 2 4 6 8 9 10 13 11 15 15 9 14 6 12 11 11 14 15 12 15 14
18 18 17 16 15 13 11 9 7 6 7 6 5 5 5 5 4 2 1 2 5 7 5 6 2 3 8 8 8 9 6 5 5 4 6 7 6 4 8 4 5 4 3 0 2 1 1 0 2 4 5 3 5 4 5 4 6 14 17 13 13 11 11 3 3 3 1 5 7 6 6 1 7 11 16 16 11 9 10 4 9 15 16 15 14 13 13
18 17 17 16 15 14 13 12 10 7 8 6 4 5 5 5 5 3 3 3 2 6 4 9 8 5 5 6 10 9 5 5 2 5 7 4 4 8 6 6 6 3 3 1 0 0 1 1 2 1 2 4 6 4 4 7 6 7 10 15 13 13 11 8 4 4 5 4 2 2 1 2 5 19 20 21 20 14 8 2 12 11 15 15 14 14 14
18 18 17 16 15 15 14 13 10 8 8 6 4 4 5 6 6 5 3 3 5 8 5 6 5 5 6 7 5 3 3 4 1 4 5 6 6 8 6 8 5 2 2 2 2 1 3 1 2 2 3 4 5 6 5 3 6 7 12 10 13 10 8 7 7 5 3 2 2 2 2 3 14 21 19 22 22 14 2 7 4 9 16 13 12 14 14
19 18 17 17 16 15 14 13 11 9 7 7 5 3 3 5 7 6 4 4 3 5 5 11 10 4 4 3 5 5 5 2 0 1 3 5 4 3 5 6 6 3 0 3 1 3 1 1 2 2 3 3 5 4 2 6 4 5 5 6 2 7 7 8 9 4 4 3 3 2 3 2 11 16 19 22 16 6 13 6 2 9 10 11 11 12 13
19 18 17 17 16 15 14 13 12 11 9 7 4 5 5 6 7 7 2 3 4 6 3 1 4 7 6 5 7 7 6 7 3 3 5 5 2 2 8 3 3 4 4 2 2 1 1 2 1 1 2 4 4 1 5 3 4 5 7 5 3 3 6 7 7 7 1 2 3 5 1 4 13 16 15 18 5 8 8 2 2 6 9 9 11 13 13
18 17 17 16 16 15 14 13 12 11 10 8 5 4 2 4 8 9 7 4 3 7 5 8 7 14 8 7 7 5 5 5 3 2 2 5 2 8 5 1 2 1 4 2 1 0 1 2 2 1 1 2 2 5 3 4 5 5 4 5 1 5 3 4 6 1 1 2 4 2 4 6 14 16 6 18 9 4 4 2 6 8 8 9 12 13 14
19 17 17 16 15 15 14 13 11 10 10 8 3 3 4 4 7 8 7 6 3 6 7 7 9 11 10 10 10 11 9 9 5 5 4 6 1 3 3 2 3 2 1 1 2 2 0 2 3 1 2 2 3 4 4 7 7 1 6 4 2 4 4 4 4 1 1 3 1 2 3 2 8 9 7 6 8 4 6 5 6 9 9 10 9 12 12
18 18 17 16 15 14 14 13 11 9 8 8 3 3 4 3 5 7 8 7 5 7 5 4 4 8 9 10 10 11 13 13 16 10 7 8 1 4 3 3 2 1 2 1 0 1 1 1 1 1 3 4 2 3 6 5 3 4 4 3 1 2 5 4 5 4 1 3 4 4 3 1 5 7 7 7 10 10 10 9 9 9 10 9 9 12 13
18 18 17 16 16 15 13 12 11 9 8 8 3 3 4 0 2 4 6 7 5 5 5 7 7 9 9 13 14 15 13 13 14 9 8 5 6 3 4 5 3 2 1 1 2 2 2 1 3 2 3 2 3 6 5 3 3 3 5 3 5 7 6 3 3 4 4 7 3 5 3 6 8 8 8 9 10 12 11 10 8 10 8 9 9 11 13
18 18 17 17 16 15 14 13 12 9 7 7 4 3 3 2 2 1 2 4 5 4 5 7 4 5 4 8 8 7 9 9 10 12 8 9 5 3 2 4 2 1 1 4 4 3 3 2 3 1 2 3 2 2 3 2 2 4 6 5 2 8 4 2 4 3 5 2 9 11 8 6 7 7 9 9 9 10 10 9 9 8 9 10 12 10 9
18 17 18 16 16 15 14 13 11 9 7 7 6 5 4 2 2 4 3 3 2 2 4 3 6 10 10 9 8 7 2 3 4 7 7 10 11 7 6 3 6 5 5 5 2 1 1 2 2 0 4 3 2 4 2 4 5 4 6 6 5 5 3 9 3 3 1 3 9 12 4 6 5 5 6 8 9 11 12 9 9 9 9 10 12 11 10
19 19 18 17 15 15 13 12 9 7 6 6 5 3 2 3 2 4 3 3 2 2 3 6 5 2 5 7 7 6 8 8 6 7 7 9 13 13 12 5 3 2 1 1 2 1 1 1 1 2 2 5 2 2 3 3 8 7 8 10 5 8 9 5 3 4 3 4 8 5 2 2 7 6 5 4 5 7 7 10 10 10 11 11 9 9 9
20 19 18 16 15 14 12 10 7 6 5 4 3 3 3 2 2 5 3 1 2 3 2 5 6 6 3 10 10 6 5 2 0 1 3 4 6 9 8 7 5 1 3 3 2 1 0 1 1 3 1 3 4 5 5 4 2 5 7 9 6 7 8 4 4 5 3 3 4 5 6 7 8 3 3 3 2 5 7 5 10 10 11 10 9 8 8
21 19 17 16 14 13 11 9 6 4 4 5 4 3 3 3 4 6 5 3 2 3 4 6 7 10 10 8 5 5 5 3 1 2 2 3 4 1 1 2 4 3 1 1 4 1 2 4 4 1 2 2 4 4 2 6 6 6 8 7 3 6 7 4 6 4 7 2 6 6 4 6 5 4 4 1 2 3 5 7 6 9 8 9 8 7 7
20 18 16 15 13 12 9 7 5 3 2 2 1 2 4 6 6 5 6 5 4 2 4 6 7 4 3 7 9 5 5 4 1 2 2 3 4 3 1 3 2 2 2 3 2 2 3 4 2 4 4 2 3 6 2 3 2 8 9 6 6 6 6 8 8 8 10 11 10 5 2 3 5 9 7 4 2 4 3 3 5 3 8 9 8 5 5
19 18 14 11 10 10 7 6 4 4 1 2 1 1 2 1 4 5 6 5 4 1 2 4 5 3 4 4 4 7 7 7 3 2 4 3 4 4 4 4 3 2 2 2 2 3 3 4 2 2 3 1 3 3 3 2 4 9 8 8 9 10 11 12 11 9 10 7 9 6 3 5 7 8 6 4 3 3 3 3 4 5 7 9 9 7 6
18 16 13 10 10 8 5 4 3 3 4 2 1 1 0 2 1 2 6 4 4 2 1 2 5 5 5 2 3 4 6 5 3 3 4 3 3 3 2 4 2 1 2 2 2 3 3 3 3 3 4 4 3 3 3 4 5 5 7 8 12 15 17 17 14 14 14 12 10 10 8 9 7 8 4 2 6 5 3 3 3 5 4 5 10 8 7
14 12 11 9 9 7 4 1 3 4 3 2 1 0 1 1 2 5 6 4 3 1 0 3 3 2 2 4 2 1 3 3 2 2 1 2 4 2 3 2 2 1 1 1 0 1 2 2 3 5 5 6 6 4 4 5 8 13 15 17 19 19 19 20 18 18 16 13 10 12 14 10 5 6 3 1 3 3 1 0 1 1 2 2 3 6 6
13 11 9 9 6 5 3 3 5 5 3 3 4 5 7 3 11 8 5 4 1 1 1 0 2 2 2 3 2 2 1 2 1 0 3 2 2 1 2 1 1 2 3 1 2 1 2 2 2 3 1 3 3 3 4 6 10 15 19 22 20 19 18 19 18 16 15 14 11 14 15 11 5 3 3 5 4 3 4 3 1 1 2 3 1 3 4
11 9 9 7 6 3 4 3 4 5 2 1 2 3 3 3 5 5 4 1 1 0 1 1 2 2 4 3 2 2 1 1 2 1 2 2 0 1 2 1 1 1 3 1 1 1 1 2 2 5 5 3 3 2 4 6 12 20 23 21 19 17 13 13 12 13 15 15 14 15 17 12 6 5 6 7 7 4 4 3 3 4 4 3 2 3 3
11 9 7 6 5 5 3 2 0 0 1 2 2 0 5 5 2 5 4 0 1 1 1 1 1 2 4 3 1 2 0 0 2 1 2 1 1 1 0 1 3 2 1 1 0 1 2 1 1 2 4 2 1 2 3 10 19 20 19 20 20 15 11 5 7 11 13 13 13 14 14 10 9 9 10 10 7 4 4 5 3 3 5 5 6 4 4
10 7 6 4 3 2 0 0 1 1 1 2 2 4 8 4 2 2 1 1 1 1 1 1 1 2 1 2 3 2 1 1 1 0 1 2 1 0 0 1 3 1 0 2 1 0 0 2 2 4 2 2 4 3 8 14 17 19 20 18 16 14 10 9 10 6 7 10 13 13 11 7 9 10 7 5 3 3 3 3 2 1 1 3 7 6 4
5 1 3 2 1 1 1 2 2 3 3 3 8 11 9 4 0 0 0 1 1 0 1 0 1 3 1 2 1 3 1 3 0 1 1 1 0 0 0 1 1 1 1 1 0 1 1 2 3 2 4 7 8 11 14 15 16 16 17 16 16 13 12 10 6 6 5 6 9 9 9 9 8 5 4 6 4 2 2 2 2 2 2 3 4 4 4
3 3 2 1 1 1 1 1 1 6 14 16 13 5 1 1 1 1 0 1 1 2 1 1 3 3 1 1 2 2 0 1 0 0 1 1 1 1 1 0 2 0 2 2 1 2 2 1 2 3 3 5 6 9 12 15 15 16 18 19 19 18 15 13 9 5 4 4 4 6 6 7 7 3 3 3 2 2 3 4 4 3 2 1 1 0 2
5 1 1 0 1 1 1 1 5 12 8 1 2 0 1 1 0 0 1 1 0 1 1 2 4 2 2 1 5 2 1 0 3 1 2 1 2 2 0 1 1 0 1 0 1 3 2 1 1 2 4 8 10 13 11 14 16 17 19 19 18 18 17 15 14 12 5 4 5 8 8 8 5 1 2 1 2 2 3 3 2 1 2 5 5 5 5
0 0 1 1 1 1 1 3 11 4 1 0 1 0 0 1 1 1 1 1 2 1 2 5 3 2 3 3 2 3 0 1 2 3 1 2 0 1 1 0 1 1 2 3 2 3 2 3 2 2 4 8 10 11 10 12 15 17 18 20 21 20 19 17 16 12 11 10 8 1 4 5 6 5 3 2 2 2 5 8 8 8 7 6 6 7 6
2 1 1 1 0 2 2 3 1 1 1 0 0 0 0 1 1 1 1 1 0 2 1 2 2 2 1 2 2 2 2 1 0 1 1 1 0 1 1 1 0 2 1 2 2 2 1 1 2 4 8 9 9 10 11 12 14 17 18 18 20 20 22 22 22 21 18 13 8 8 11 10 10 10 10 11 12 11 10 10 11 11 12 10 8 8 7
1 1 1 1 1 1 3 0 1 1 0 2 1 1 0 0 1 1 0 0 1 2 3 1 4 5 4 1 2 0 2 1 1 1 1 1 1 1 1 1 1 2 2 1 1 1 2 3 3 5 9 8 9 9 9 11 14 16 19 19 19 20 23 22 23 24 22 18 13 14 16 17 17 15 14 14 14 13 13 13 14 14 13 10 8 10 10
6 1 2 0 0 1 1 1 1 1 1 2 3 2 2 1 1 1 3 0 0 1 4 3 2 2 4 1 4 2 2 1 1 0 0 0 0 0 1 1 1 2 1 1 2 3 4 4 6 9 8 8 8 9 9 9 9 11 14 15 16 17 20 22 23 23 22 20 20 20 19 16 16 15 13 13 16 17 16 15 13 13 13 11 9 10 10
1 1 1 0 1 1 0 1 1 1 2 0 2 1 2 3 6 3 2 3 1 2 3 1 2 2 3 2 2 1 0 0 0 1 0 0 2 2 1 2 2 2 2 2 2 4 4 3 7 8 9 8 8 9 8 8 8 9 10 12 14 16 16 16 18 22 23 21 20 19 17 16 20 19 16 15 16 18 17 16 14 15 14 11 10 12 11
1 1 2 1 1 1 2 2 2 2 3 3 1 1 1 3 4 3 4 3 1 7 8 3 2 1 3 1 1 1 1 0 1 1 1 1 2 2 1 0 2 1 2 1 2 2 1 5 7 7 8 8 7 7 8 7 7 7 7 10 14 16 18 20 19 17 18 20 19 19 20 19 19 17 16 15 14 13 14 15 13 14 11 9 9 13 12
1 1 1 3 4 2 1 0 1 3 2 2 1 2 3 4 3 4 5 2 6 8 8 7 1 1 3 2 2 1 0 1 2 1 0 1 2 2 1 1 1 2 2 2 2 3 3 5 7 8 9 10 10 8 6 7 7 6 7 10 10 12 13 15 16 16 15 15 16 18 18 18 17 17 17 16 16 16 14 13 11 11 9 9 10 10 9
1 2 1 1 1 2 1 2 2 0 1 0 3 3 4 3 4 4 3 4 7 7 7 4 0 1 1 4 2 3 3 1 2 1 2 2 0 0 1 2 2 2 2 2 2 2 3 5 5 5 7 8 7 6 7 7 7 8 8 7 9 10 10 11 12 14 14 14 14 14 15 15 16 14 14 15 15 15 15 15 14 11 9 8 7 8 9
1 1 2 2 1 0 4 2 0 1 2 3 3 2 3 3 5 7 8 5 5 5 7 4 2 2 2 2 4 1 2 2 2 2 1 0 1 2 1 2 2 2 3 2 5 5 5 7 7 6 4 5 4 5 7 7 7 8 9 8 8 8 9 9 10 11 11 12 12 11 10 11 12 14 14 13 13 13 12 11 12 13 13 12 11 11 10
1 1 1 0 0 1 1 2 3 5 5 6 5 4 5 6 6 7 7 4 6 6 6 3 2 1 1 2 2 3 3 3 3 1 2 3 2 1 2 1 2 2 3 4 5 5 5 6 6 6 6 6 6 5 4 4 5 6 6 6 6 6 5 7 7 7 8 8 9 10 10 10 9 9 10 12 12 11 10 10 11 10 10 11 11 12 13
1 1 2 2 3 3 3 3 7 4 6 5 5 6 6 3 6 6 4 5 5 4 6 3 2 3 1 1 1 1 1 2 2 1 2 3 3 3 2 2 2 2 3 3 2 3 5 5 5 6 7 6 6 6 6 5 4 5 5 5 5 5 6 7 7 8 7 7 7 8 8 8 8 8 9 8 8 7 9 10 10 10 10 11 10 11 12
1 2 1 1 4 0 1 3 2 3 5 4 4 5 4 4 6 5 4 2 4 5 5 3 2 2 3 3 2 2 1 1 3 3 2 2 2 2 1 2 2 2 1 2 2 3 4 4 5 5 7 8 8 8 6 6 5 3 4 7 7 6 5 6 7 7 7 7 7 8 8 8 7 7 6 6 6 7 8 9 9 9 9 10 10 10 10
1 2 1 1 3 4 4 1 2 2 2 1 3 4 2 5 6 5 4 4 3 6 5 3 2 2 2 2 1 1 2 2 2 2 2 2 1 1 1 2 2 3 4 3 3 3 3 4 4 6 6 7 7 7 8 6 4 5 6 5 6 6 6 5 6 6 6 6 7 7 7 6 6 6 6 8 8 8 8 7 7 8 8 8 9 10 9
Wind_Direction
332 334 333 332 334 337 338 343 342 343 354 0 349 311 326 347 275 290 306 352 338 2 43 2 3 350 19 6 33 345 354 342 1 351 24 340 57 330 320 353 328 23 3 343 338 333 324 339 22 327 331 335 343 333 337 349 343 341 326 312 323 332 258 304 277 275 257 256 268 278 284 220 210 209 172 179 196 190 192 176 180 182 189 218 270 255 255
331 331 331 331 333 335 338 341 343 341 358 1 330 333 328 296 288 318 13 353 333 66 42 355 338 350 357 1 357 8 342 360 1 350 342 17 336 1 335 292 44 321 331 312 319 349 302 58 15 314 338 314 334 325 339 344 328 339 336 329 344 346 10 10 303 325 301 312 347 324 270 218 215 200 199 192 197 182 145 137 136 182 210 184 169 233 268
330 329 329 330 331 333 336 338 340 341 344 360 345 332 304 282 262 261 326 350 352 53 348 18 343 357 358 347 352 354 0 1 349 331 336 344 322 340 344 344 330 331 5 354 1 351 358 341 267 297 328 302 313 322 337 331 316 322 309 314 335 280 284 324 310 338 277 219 208 210 351 343 321 225 202 196 183 174 130 183 173 197 243 172 192 237 253
326 326 326 327 328 331 334 335 338 339 339 351 0 324 319 9 336 325 327 1 344 58 2 55 15 6 8 352 343 343 343 346 333 6 347 15 349 336 336 350 357 10 9 358 1 340 335 332 290 333 291 308 316 327 328 322 322 310 317 334 339 294 289 270 284 310 271 279 283 278 285 276 266 301 234 195 182 175 178 123 146 195 201 186 218 180 244
325 323 324 326 330 332 333 333 335 337 333 348 337 297 219 286 38 340 341 318 62 4 14 11 9 5 335 322 334 333 330 341 322 25 338 352 334 330 29 4 2 353 359 357 330 347 330 315 304 306 313 309 306 326 318 326 304 339 353 349 324 318 302 282 290 301 284 283 274 277 276 268 273 274 276 207 187 178 182 186 207 167 121 211 252 206 224
324 324 325 327 330 331 330 330 332 332 327 344 351 356 329 29 343 52 68 267 324 340 349 346 331 311 346 324 312 336 354 2 358 344 3 332 345 348 344 358 337 346 339 331 327 338 327 315 320 1 295 310 317 330 334 295 6 358 345 333 329 316 292 293 328 311 304 289 274 266 263 257 260 270 287 231 192 185 182 200 191 151 172 196 233 213 223
323 322 325 326 327 326 325 326 325 330 322 347 10 352 310 173 305 32 34 359 323 299 288 301 291 299 348 290 352 358 348 342 1 345 320 331 326 333 310 334 348 340 341 342 301 343 328 311 320 324 313 316 344 320 338 324 2 342 332 336 320 314 234 306 324 307 298 290 293 309 314 305 275 275 288 310 209 197 191 181 183 186 186 191 194 181 222
325 324 323 327 325 325 321 317 316 321 332 338 338 194 339 358 54 320 330 273 293 273 281 282 299 305 313 317 43 358 339 320 330 336 328 316 304 337 339 337 338 330 324 319 304 293 306 311 314 312 316 314 296 304 203 285 304 333 317 324 327 343 293 325 321 315 294 284 307 327 331 326 304 291 295 308 289 210 195 181 192 197 241 195 170 171 232
324 325 322 325 324 320 316 313 312 300 62 334 6 306 190 251 169 135 317 315 294 301 315 306 289 291 280 196 316 336 309 288 205 264 266 266 294 335 314 308 311 313 313 298 285 334 326 309 300 303 300 290 279 107 189 302 305 320 321 319 314 314 286 314 314 321 299 308 349 325 322 311 294 301 354 14 53 228 205 196 168 162 214 203 127 174 243
324 325 325 324 327 320 316 311 300 289 166 209 199 258 322 58 260 115 133 277 312 311 294 302 319 282 235 328 322 321 302 348 32 325 305 306 333 305 299 297 295 295 320 294 292 312 296 305 299 291 282 271 273 242 249 259 271 280 286 297 294 296 298 311 323 317 263 297 322 312 308 321 6 12 0 331 25 242 349 205 172 182 174 156 177 220 218
324 324 325 325 325 325 322 312 290 282 171 229 205 234 220 192 271 305 200 269 248 276 321 286 282 288 332 328 316 313 307 344 110 345 282 298 294 294 290 285 276 260 256 262 297 284 288 289 283 281 282 280 277 271 239 237 236 244 259 281 280 281 278 281 315 282 289 305 312 305 332 123 227 281 18 4 21 72 64 40 22 10 14 231 214 210 188
324 324 323 325 326 323 322 309 291 266 209 229 203 231 207 127 154 191 258 271 272 281 278 289 296 296 299 303 307 295 311 315 291 200 251 274 284 288 286 287 279 290 238 299 304 293 290 285 280 288 279 272 265 265 253 239 236 231 234 244 261 269 286 282 259 255 287 304 312 193 215 208 303 344 35 14 24 63 80 63 38 26 16 358 5 328 161
322 323 324 323 322 321 317 309 293 267 232 221 223 248 199 176 173 183 215 255 261 270 286 278 284 285 290 291 287 308 248 265 269 283 283 280 290 303 304 309 329 279 301 303 304 316 333 303 299 280 282 278 269 252 247 240 238 237 235 232 241 260 264 278 261 248 290 322 335 187 203 260 351 354 21 4 4 355 347 43 27 22 8 354 353 360 324
321 323 322 320 319 318 316 310 296 276 256 224 228 222 202 166 171 193 210 275 281 263 280 290 283 270 273 294 338 324 305 283 290 297 312 317 306 305 326 355 310 300 307 287 306 1 346 16 321 334 319 316 269 236 235 237 234 237 233 230 231 243 256 246 293 223 238 315 295 253 337 345 0 8 355 352 344 327 340 87 21 4 5 1 4 0 355
319 321 321 320 319 317 314 306 301 288 274 236 221 234 220 191 181 153 179 209 277 288 258 264 223 287 322 320 324 317 305 291 322 311 299 290 295 337 318 316 316 320 308 42 344 356 220 40 3 336 310 359 358 349 346 314 282 232 229 228 222 227 233 231 222 282 57 356 324 349 41 346 311 326 315 326 309 276 265 42 60 12 0 2 1 13 351
321 319 319 318 316 315 309 309 308 291 271 248 221 227 225 199 185 170 162 186 295 298 253 220 236 283 312 306 296 285 285 302 302 299 321 322 300 313 317 317 311 346 9 24 152 52 318 66 265 19 288 306 320 355 333 327 321 320 226 213 219 226 232 240 227 273 352 339 349 300 323 210 26 328 318 316 318 296 263 78 50 350 357 346 0 12 3
318 319 318 315 314 312 312 310 305 285 270 223 219 218 241 186 194 184 184 206 197 231 293 319 297 298 305 294 286 293 354 312 284 340 321 327 313 305 303 326 308 11 34 48 346 43 9 349 296 244 284 279 318 322 339 356 325 334 353 196 204 219 229 247 248 259 247 314 323 290 254 311 330 318 316 314 316 297 181 69 26 340 339 337 355 17 15
319 320 315 314 313 313 312 312 308 295 275 230 209 232 237 176 192 166 188 212 240 277 231 243 248 241 222 230 283 285 288 262 125 199 221 267 299 297 334 335 340 319 72 13 22 44 28 323 18 309 266 309 332 323 353 339 329 347 334 329 235 209 228 228 245 233 255 281 274 305 322 301 324 312 308 314 312 351 69 88 353 316 328 355 354 21 20
318 317 313 314 316 317 312 308 305 301 293 275 226 235 235 197 181 183 180 205 204 241 208 326 177 224 240 275 274 277 263 286 296 288 290 308 247 306 338 318 22 334 4 84 26 39 354 275 70 252 280 308 344 350 330 332 340 317 314 358 348 215 213 241 243 248 261 295 268 244 180 19 332 314 309 327 2 51 85 60 299 338 357 359 11 21 18
315 315 316 317 319 318 313 310 308 302 296 272 213 237 233 170 184 183 191 226 213 261 248 260 255 264 260 264 275 274 294 274 157 222 223 270 354 349 334 343 311 299 329 356 34 267 92 287 286 337 324 304 260 334 301 299 320 284 308 321 280 351 283 219 233 236 196 232 278 346 354 342 337 311 2 359 54 35 343 301 20 19 2 13 17 20 21
318 318 318 317 318 317 314 313 309 305 298 292 229 243 251 195 189 196 201 205 236 280 278 231 233 245 257 258 256 261 264 267 254 239 233 247 277 8 296 255 296 356 302 16 352 300 7 301 325 308 296 305 297 338 342 333 311 306 346 323 305 355 353 0 326 341 178 170 178 77 8 267 325 11 69 346 21 318 325 355 34 25 18 14 13 18 20
319 320 320 320 317 313 315 314 314 307 297 295 258 224 253 200 188 193 204 201 221 231 256 326 336 274 260 259 258 256 260 267 260 252 262 280 205 182 257 309 297 190 219 162 38 337 2 321 308 339 326 300 339 274 329 320 296 331 338 326 304 48 357 342 282 304 26 306 343 322 285 283 59 47 56 37 5 10 22 12 28 28 16 3 22 14 11
321 321 319 319 318 316 315 314 312 307 298 288 268 232 256 135 207 196 191 217 230 265 290 289 277 277 273 262 248 248 240 232 251 251 246 255 272 206 180 251 243 232 176 165 164 187 219 176 239 212 284 232 298 313 304 247 284 344 332 359 297 318 303 276 256 290 289 255 249 313 317 358 90 71 67 47 19 356 15 21 14 29 12 11 29 13 2
321 320 319 317 318 316 313 313 313 309 295 284 251 228 245 215 213 161 223 229 236 282 264 230 251 271 254 287 293 263 229 227 230 240 208 196 234 262 225 224 146 160 238 222 196 153 199 174 239 234 269 256 311 283 291 330 292 325 345 324 306 294 293 340 299 308 4 299 343 342 347 36 58 85 80 70 48 17 358 3 18 7 15 18 18 13 15
319 319 319 319 317 316 315 314 312 309 297 277 266 245 245 244 200 176 218 254 243 228 281 283 225 243 259 264 278 277 199 234 243 244 194 192 208 225 234 196 171 171 214 206 147 107 251 249 321 333 286 273 234 269 240 304 287 19 318 291 330 295 29 333 229 292 239 277 315 300 331 93 73 55 60 56 57 30 358 349 20 6 12 32 14 357 6
320 321 321 320 318 316 319 320 316 309 295 275 245 205 204 229 175 174 192 242 290 288 272 297 285 225 241 269 273 287 298 288 271 259 246 208 209 220 243 265 282 231 221 95 146 181 296 287 233 259 288 294 355 308 285 252 277 293 269 274 245 283 317 267 308 299 280 284 274 311 297 104 55 45 73 70 83 96 34 345 355 10 23 27 18 353 349
320 321 321 321 322 322 321 324 320 310 285 251 236 207 218 249 220 172 191 193 282 268 224 256 286 291 316 307 296 282 273 226 344 328 336 317 233 208 227 246 247 39 36 17 17 66 286 261 253 267 246 275 2 285 282 296 291 292 282 269 276 284 258 273 317 297 289 244 278 19 11 313 328 3 26 26 35 104 117 51 4 5 15 11 13 354 343
321 322 322 323 324 324 324 317 317 314 275 248 240 238 219 227 222 204 215 198 195 255 298 292 304 302 302 258 283 303 304 175 212 309 318 9 12 324 227 115 113 94 96 30 326 10 342 312 282 333 298 304 354 306 314 279 285 266 250 262 230 248 266 275 261 242 269 273 295 323 294 274 255 300 317 330 345 70 73 84 41 359 10 353 353 350 352
322 322 322 323 321 323 319 308 293 278 276 146 175 246 256 238 235 218 209 195 185 267 275 276 275 279 340 337 317 320 342 341 65 349 14 43 64 66 74 99 105 115 99 114 137 302 294 267 270 275 267 81 274 272 306 294 266 266 266 287 284 266 295 285 278 290 282 284 287 304 346 322 311 317 309 311 327 87 68 68 106 50 356 339 343 329 349
320 321 320 316 316 318 316 306 287 264 184 123 141 227 261 242 192 208 197 168 157 144 296 324 322 285 327 310 313 327 341 347 24 32 40 37 68 86 99 98 75 81 94 87 61 299 304 299 267 266 286 239 235 288 270 240 267 270 282 283 281 288 282 275 277 267 269 281 282 288 296 292 288 287 282 291 346 18 45 75 56 45 10 344 338 330 343
316 316 317 312 314 315 307 301 286 173 134 116 173 293 34 10 269 160 152 148 154 128 218 223 260 306 306 240 286 309 332 339 9 45 53 57 52 63 55 82 77 88 89 69 31 303 315 292 331 300 4 330 318 278 288 296 278 282 279 296 304 301 295 286 280 271 269 267 271 281 280 273 273 281 292 13 358 8 18 59 48 42 31 17 339 325 337
310 312 310 314 313 306 301 244 163 138 124 143 169 129 170 219 202 133 128 131 121 91 210 306 304 313 296 295 262 289 319 331 1 36 44 15 57 41 51 11 104 19 98 108 114 5 324 333 306 310 320 340 337 287 292 275 275 277 299 310 303 291 283 280 275 269 265 267 283 290 276 263 219 217 231 284 328 329 67 40 91 95 62 64 318 320 323
312 311 305 305 305 290 280 201 169 166 181 224 261 256 283 119 115 120 129 119 81 159 127 320 264 270 294 278 316 320 259 324 9 138 29 351 72 325 56 31 49 75 353 20 66 162 265 279 259 301 324 341 297 309 308 278 274 289 299 297 289 281 274 269 264 257 254 251 233 241 251 244 215 218 314 321 322 303 314 321 286 77 66 59 37 333 320
306 307 305 289 287 263 240 220 196 161 105 65 297 231 217 133 113 134 154 175 132 98 89 120 330 340 269 290 356 302 70 75 320 331 41 352 296 61 111 121 343 54 343 54 152 59 284 360 334 302 323 342 8 314 281 276 295 301 299 294 291 288 272 262 256 247 244 242 235 234 243 248 249 285 296 292 298 303 302 302 352 7 352 8 352 296 275
302 298 291 285 246 234 258 221 177 96 224 225 224 143 142 147 159 185 176 177 59 348 28 287 147 306 329 339 28 283 174 96 16 2 116 271 336 110 229 63 327 62 296 153 83 133 343 297 226 313 302 273 213 277 264 303 305 310 314 316 317 316 308 280 236 237 240 238 240 240 240 235 238 245 248 255 258 271 299 301 316 12 345 339 325 312 297
296 287 275 284 304 261 301 100 188 168 275 232 205 156 136 164 170 132 282 162 141 161 276 260 189 248 185 333 323 282 127 37 222 77 87 125 18 337 231 132 35 308 84 63 37 3 10 269 3 328 268 353 4 320 321 321 321 319 327 323 322 321 315 299 274 250 227 229 236 245 246 232 227 231 220 229 226 241 249 270 301 325 308 318 304 306 305
280 263 109 116 66 40 260 232 161 171 222 146 125 125 135 145 169 207 322 324 353 66 184 227 23 266 182 240 257 279 27 8 356 78 172 122 106 218 84 39 100 230 52 352 278 295 70 60 88 287 346 10 5 350 346 338 338 331 336 344 347 336 336 336 309 296 269 231 225 234 237 237 238 222 204 225 234 222 278 288 253 270 268 266 286 304 299
118 129 131 73 52 350 310 285 158 133 114 117 121 102 39 312 112 151 273 265 231 147 209 167 259 259 339 81 298 252 83 273 60 131 344 161 75 330 352 88 217 198 18 334 304 117 159 96 46 12 317 356 2 357 357 350 347 350 353 360 1 358 354 357 347 332 335 307 239 222 228 229 229 204 196 233 234 256 238 235 240 229 236 221 168 182 36
126 110 70 307 91 255 261 311 129 120 95 47 6 94 160 203 197 235 207 210 220 312 212 156 269 215 183 243 266 286 134 239 330 344 38 295 93 322 215 45 293 131 349 10 323 138 360 358 28 339 25 350 5 360 356 359 359 1 1 5 6 4 1 3 1 353 323 260 231 202 198 206 189 160 150 211 280 260 245 256 281 312 98 106 94 81 66
34 35 171 140 221 238 21 140 145 113 144 103 227 110 318 161 89 332 183 5 318 203 92 327 233 223 193 236 259 308 149 66 354 317 304 311 38 137 253 128 267 78 2 17 353 50 90 332 317 350 12 8 16 352 358 2 6 5 8 7 7 8 7 14 17 9 18 14 358 211 177 167 161 166 169 199 239 313 14 38 46 48 49 58 81 78 67
218 240 268 213 275 110 141 139 333 29 210 241 266 321 74 344 242 194 52 1 305 291 168 198 310 324 294 199 179 244 299 64 98 149 66 326 8 345 50 24 56 72 348 344 303 71 45 286 310 4 16 1 3 359 1 8 14 14 12 8 9 10 11 17 22 20 18 16 7 53 65 63 66 67 67 68 63 60 54 48 42 42 43 36 47 64 61
222 239 228 350 249 123 95 191 184 279 278 206 109 297 272 215 7 11 92 93 292 307 292 100 309 292 297 320 262 167 295 177 160 138 112 348 186 123 53 269 28 87 47 283 288 16 27 5 336 15 358 353 358 0 6 13 13 17 17 11 12 14 14 18 22 23 19 21 28 60 59 58 61 59 62 69 67 60 57 51 44 39 37 25 31 54 57
319 172 137 230 108 139 179 359 262 135 86 352 32 357 341 30 303 324 286 326 84 75 257 109 162 281 264 95 300 200 211 131 93 34 87 216 253 61 74 357 6 34 33 12 34 352 5 342 9 16 350 352 357 5 5 9 7 19 18 14 14 17 19 19 22 24 22 24 32 47 48 49 59 64 61 65 71 66 59 54 48 46 38 25 27 48 49
179 137 89 167 55 284 141 329 266 32 354 40 91 350 323 2 323 2 8 310 215 245 251 308 229 117 322 231 180 238 151 15 188 106 289 345 63 345 34 23 6 324 68 44 26 23 345 340 348 347 359 2 7 9 7 7 15 17 21 20 21 23 23 23 26 29 26 25 28 40 46 48 55 52 47 47 57 67 65 58 50 49 43 32 34 50 44
78 350 26 21 17 273 55 326 328 83 23 329 60 14 16 16 317 338 346 277 144 299 310 262 221 265 266 278 37 299 139 167 230 86 347 51 53 343 72 280 294 23 52 6 8 330 20 13 339 352 351 353 355 357 2 5 3 13 19 28 28 29 31 30 24 29 33 28 23 32 41 38 44 47 45 43 47 51 64 67 60 55 45 39 42 57 52
56 254 57 59 333 320 104 176 346 27 354 48 360 316 11 342 331 314 272 287 319 312 326 302 296 56 335 227 137 257 302 84 60 359 36 64 82 342 293 68 45 29 17 38 15 359 7 353 354 350 342 351 355 4 5 358 357 0 14 29 26 34 39 41 37 31 33 35 31 33 34 36 38 40 40 37 42 47 50 54 55 61 58 49 48 58 60
4 348 88 125 82 287 41 43 31 23 261 326 9 22 30 329 302 283 279 305 314 298 304 259 135 132 146 314 9 359 356 360 69 335 57 49 52 244 13 62 9 9 18 7 349 322 302 333 349 335 355 352 354 357 5 359 0 7 17 21 32 37 38 45 46 46 39 36 40 44 45 40 36 37 43 42 40 37 29 29 37 46 55 57 58 57 61
317 260 83 67 292 346 33 347 305 20 358 49 1 9 3 343 7 344 327 320 297 335 356 0 10 351 13 326 74 62 359 354 52 346 4 11 29 39 16 24 14 22 34 359 30 346 343 345 338 335 333 311 322 352 357 1 11 19 14 12 19 31 38 44 48 47 44 44 42 40 42 48 49 40 32 36 44 42 39 36 30 26 30 33 37 44 54
131 106 77 195 209 75 323 297 48 43 358 360 354 12 351 9 346 311 308 334 353 349 325 12 0 58 348 302 53 11 22 335 54 328 6 16 53 2 341 6 327 11 18 20 26 356 331 318 325 336 339 339 347 354 7 23 360 358 13 5 5 5 22 40 40 42 45 48 49 49 47 44 45 52 49 35 32 36 36 36 37 39 36 38 35 34 38
72 348 11 44 17 347 315 24 56 21 337 351 3 348 337 351 339 302 309 7 342 348 342 356 4 80 279 63 39 26 55 354 65 22 48 33 11 349 15 37 37 337 311 2 6 313 310 316 331 347 348 349 351 352 346 346 8 17 1 351 348 355 26 37 37 35 36 39 45 52 52 50 49 50 52 51 44 36 36 34 33 35 37 33 35 38 39
2 126 178 135 123 151 43 25 351 19 358 357 337 334 336 331 321 308 315 24 5 14 18 19 322 41 12 13 20 39 29 47 68 42 56 30 347 18 27 340 302 257 276 267 259 276 301 316 334 339 348 348 348 345 345 339 338 350 26 22 5 3 25 41 42 42 42 41 43 47 48 50 51 51 50 53 54 47 42 38 37 33 33 34 34 39 41
44 44 352 5 88 116 107 86 76 116 125 1 345 312 5 360 325 312 334 69 28 47 20 344 35 26 47 41 305 353 28 48 49 24 53 51 346 54 305 253 270 284 284 303 312 309 334 332 333 336 336 338 343 341 353 355 344 345 6 19 35 21 6 20 41 41 42 46 44 46 46 45 46 47 48 49 46 46 45 41 31 35 35 34 39 38 39